Terug naar catalogus

TIROS 3

ActiefWeerLEO
NORAD 162·PAYLOAD·🇺🇸 United States

Gelanceerd Jul 12, 1961 vanaf Cape Canaveral Space Force Station

Loading…

Volgende Passages (komende 24 uur)

TLE

VersSource: Space-Track

Epoch: Sep 9, 2026, 05:38 UTC

1 00162U 61017A   26252.23503881 -.00000040  00000-0  34812-4 0  9998
2 00162  47.9008 346.6442 0043923 328.4742  31.3521 14.45417299403939

Volg TIROS 3 in realtime met AllMySat

Download on the App Store